This is the latest recevied weather packets stored in our database for station/object KB1QVF. If no packets are shown the sender has not sent any weather packets the latest 10 day(s).
| Time | Temp. | Humidity | Pressure | Rain* | Wind** | Luminosity | Snow |
|---|---|---|---|---|---|---|---|
| 1778018803 | 21.11° C | 49% | 1011 hPa | 0 mm | - | 156 W/m² | - |
| 1778018501 | 21.11° C | 49% | 1011 hPa | 0 mm | - | 155 W/m² | - |
| 1778018198 | 21.11° C | 50% | 1010.9 hPa | 0 mm | - | 150 W/m² | - |
| 1778017896 | 21.11° C | 49% | 1010.7 hPa | 0 mm | - | 150 W/m² | - |
| 1778017594 | 21.67° C | 49% | 1011 hPa | 0 mm | - | 162 W/m² | - |
| 1778017291 | 21.67° C | 50% | 1010.7 hPa | 0 mm | - | 202 W/m² | - |
| 1778016989 | 21.67° C | 48% | 1010.9 hPa | 0 mm | - | 167 W/m² | - |
| 1778016685 | 22.22° C | 48% | 1010.6 hPa | 0 mm | - | 230 W/m² | - |
| 1778016381 | 22.22° C | 48% | 1010.5 hPa | 0 mm | - | 280 W/m² | - |
| 1778016079 | 22.22° C | 49% | 1010.6 hPa | 0 mm | - | 307 W/m² | - |
| 1778015775 | 22.22° C | 48% | 1010.8 hPa | 0 mm | - | 304 W/m² | - |
| 1778015473 | 21.67° C | 49% | 1010.8 hPa | 0 mm | - | 298 W/m² | - |
| 1778015169 | 22.22° C | 48% | 1010.9 hPa | 0 mm | - | 319 W/m² | - |
| 1778014866 | 22.22° C | 48% | 1010.7 hPa | 0 mm | - | 330 W/m² | - |
| 1778014564 | 22.22° C | 48% | 1010.8 hPa | 0 mm | - | 363 W/m² | - |
| 1778014261 | 22.78° C | 48% | 1010.6 hPa | 0 mm | - | 386 W/m² | - |
| 1778013958 | 22.78° C | 47% | 1010.6 hPa | 0 mm | - | 384 W/m² | - |
| 1778013655 | 23.33° C | 46% | 1010.7 hPa | 0 mm | - | 421 W/m² | - |
| 1778013352 | 22.78° C | 47% | 1010.8 hPa | 0 mm | - | 440 W/m² | - |
| 1778013049 | 22.78° C | 48% | 1010.6 hPa | 0 mm | - | 453 W/m² | - |
| 1778012740 | 23.33° C | 46% | 1010.5 hPa | 0 mm | - | 467 W/m² | - |
| 1778012436 | 23.33° C | 47% | 1010.8 hPa | 0 mm | - | 477 W/m² | - |
| 1778012133 | 22.78° C | 48% | 1010.9 hPa | 0 mm | - | 497 W/m² | - |
| 1778011831 | 22.78° C | 48% | 1010.7 hPa | 0 mm | - | 513 W/m² | - |
| 1778011528 | 23.33° C | 46% | 1010.8 hPa | 0 mm | - | 525 W/m² | - |
* Rain latest hour (hover to see other rain measurements)
** Current wind speed in m/s (hover to see current wind gust speed)